Hourly Data Report for September 09, 2017

All times are specified in Local Standard Time (LST). Add 1 hour to adjust for Daylight Saving Time where and when it is observed.

POND INLET A
NUNAVUT

72°41'22.000" N
77°58'08.000" W
61.60 m
2403206
71095
YIO

Download Data

Hourly Data (September 2017)
Hourly Data Report for September 9, 2017
Temp Definition
°C
Dew Point Temp Definition
°C
Rel Hum Definition
%
Wind Dir Definition
10's deg

Wind Spd Definition
km/h
Visibility Definition
km
Stn Press Definition
kPa
Hmdx Definition


Wind Chill Definition


Weather Definition


TIME
00:00 Legend Double Dagger -4.1 -6.9 81 25 18 16.1 97.57   -10 Snow
01:00 Legend Double Dagger -5.0 -8.1 79 20 24 14.5 97.44   -12 Snow
02:00 Legend Double Dagger -5.3 -8.1 81 20 21 4.8 97.33   -12 Snow
03:00 Legend Double Dagger -5.5 -7.3 87 19 21 4.8 97.24   -12 Snow
04:00 Legend Double Dagger -5.7 -7.5 87 16 17 6.4 97.15   -12 Snow
05:00 Legend Double Dagger -5.2 -7.0 87 LegendMM 4 16.1 97.13   -7 LegendNANA
06:00 Legend Double Dagger -7.1 -10.3 78 7 5 16.1 97.09   -10 LegendNANA
07:00 Legend Double Dagger -5.2 -7.7 83 13 11 16.1 97.08   -10 LegendNANA
08:00 Legend Double Dagger -4.3 -6.6 84 20 17 16.1 97.07   -10 LegendNANA
09:00 Legend Double Dagger -2.6 -4.9 84 20 5 16.1 97.05   -5 LegendNANA
10:00 Legend Double Dagger -1.8 -4.5 82 20 4 2.4 97.00   -3 Snow
11:00 Legend Double Dagger -1.6 -4.0 84 36 9 3.2 97.02   -5 Snow
12:00 Legend Double Dagger 0.3 -4.7 69 21 11 16.1 97.04     LegendNANA
13:00 Legend Double Dagger -1.4 -4.6 79 16 15 16.1 97.02   -6 LegendNANA
14:00 Legend Double Dagger 1.5 -1.9 78 25 13 16.1 97.00     LegendNANA
15:00 Legend Double Dagger 1.0 -2.8 76 22 17 16.1 97.04     LegendNANA
16:00 Legend Double Dagger 1.0 -2.1 80 25 9 16.1 97.09     LegendNANA
17:00 Legend Double Dagger 2.2 -0.5 82 30 35 16.1 97.15     LegendNANA
18:00 Legend Double Dagger 1.7 -1.7 78 30 37 16.1 97.30     LegendNANA
19:00 Legend Double Dagger 1.1 -2.0 80 30 35 16.1 97.51     LegendNANA
20:00 Legend Double Dagger 0.6 -2.3 81 30 41 16.1 97.70     LegendNANA
21:00 Legend Double Dagger 0.5 -2.2 82 30 39 16.1 97.89     LegendNANA
22:00 Legend Double Dagger -0.3 -2.7 84 30 41 16.1 98.04   -8 Snow
23:00 Legend Double Dagger -0.5 -3.0 83 30 30 16.1 98.15   -7 LegendNANA

Notes on Data Quality.

Legend

  • E = Estimated
  • M = Missing
  • NA = Not Available
  • ‡ = Partner data that is not subject to review by the National Climate Archives
Date modified: